Location: Jastrzębia Góra
(54.8312°N, 18.3037°E)
Time: 06:22:50
(UTC+02:00)

ISS - Visible Passes

Search period start: 20 September 2018 00:00
Search period end: 30 September 2018 00:00
Orbit: 402 x 408 km, 51.6° (Epoch: 20 September)

Date Brightness Start Highest point End Pass type
(mag) Time Alt. Az. Time Alt. Az. Time Alt. Az.
23 Sep -1.0 21:11:46 10° SW 21:11:54 11° SW 21:11:54 11° SW visible
24 Sep -2.2 20:20:15 10° SSW 20:22:20 20° SSE 20:22:20 20° SSE visible
25 Sep -1.8 19:28:59 10° S 19:31:00 15° SSE 19:32:36 12° ESE visible
25 Sep -1.9 21:03:48 10° SW 21:05:17 22° SW 21:05:17 22° SW visible
26 Sep -2.9 20:12:02 10° SW 20:14:59 31° SSE 20:15:26 29° SE visible
26 Sep -0.7 21:47:55 10° WSW 21:48:06 11° WSW 21:48:06 11° WSW visible
27 Sep -2.4 19:20:23 10° SSW 19:23:04 23° SSE 19:25:29 12° ESE visible
27 Sep -2.6 20:55:58 10° WSW 20:58:09 33° SW 20:58:09 33° SW visible
28 Sep -3.2 20:04:03 10° WSW 20:07:10 40° SSE 20:08:08 31° SE visible
28 Sep -0.9 21:40:12 10° W 21:40:47 14° WSW 21:40:47 14° WSW visible
29 Sep -2.8 19:12:11 10° SW 19:15:12 33° SSE 19:18:02 11° E visible
29 Sep -2.9 20:48:10 10° WSW 20:50:42 40° SW 20:50:42 40° SW visible
